| time (UTC) | temp C | wind direction | speed KPH | gust KPH | rain 1hr cm | rain 24hr cm | rain mn cm | humidity % | barometer mb |
| 20260906111050 | 22 | 270 | 0.0 | 0.0 | 0.00 | 0.00 | 0.00 | 89 | 974.4 |
| 20260906110546 | 22 | 270 | 0.0 | 0.0 | 0.00 | 0.00 | 0.00 | 89 | 974.4 |
| 20260906110055 | 22 | 270 | 0.0 | 0.0 | 0.00 | 0.00 | 0.00 | 89 | 974.3 |
| 20260906105545 | 22 | 270 | 0.0 | 0.0 | 0.00 | 0.00 | 0.00 | 89 | 974.2 |
| 20260906105045 | 22 | 270 | 0.0 | 0.0 | 0.00 | 0.00 | 0.00 | 89 | 974.2 |
| 20260906104543 | 22 | 270 | 0.0 | 0.0 | 0.00 | 0.00 | 0.00 | 89 | 974.3 |
| 20260906104044 | 22 | 270 | 0.0 | 0.0 | 0.00 | 0.00 | 0.00 | 89 | 974.2 |
| 20260906103543 | 22 | 270 | 0.0 | 0.0 | 0.00 | 0.00 | 0.00 | 90 | 974.3 |
| 20260906103044 | 22 | 270 | 0.0 | 0.0 | 0.00 | 0.00 | 0.00 | 90 | 974.4 |
| 20260906102543 | 21 | 270 | 0.0 | 0.0 | 0.00 | 0.00 | 0.00 | 90 | 974.3 |
| 20260906102042 | 21 | 270 | 0.0 | 0.0 | 0.00 | 0.00 | 0.00 | 90 | 974.3 |
| 20260906101542 | 21 | 270 | 0.0 | 0.0 | 0.00 | 0.00 | 0.00 | 90 | 974.2 |
| 20260906101041 | 21 | 270 | 0.0 | 0.0 | 0.00 | 0.00 | 0.00 | 90 | 974.2 |
| 20260906100541 | 21 | 270 | 0.0 | 0.0 | 0.00 | 0.00 | 0.00 | 90 | 974.2 |
| 20260906100048 | 21 | 270 | 0.0 | 0.0 | 0.00 | 0.00 | 0.00 | 90 | 974.1 |
| 20260906095541 | 21 | 270 | 0.0 | 1.6 | 0.00 | 0.00 | 0.00 | 90 | 974.1 |
| 20260906095040 | 21 | 270 | 0.0 | 1.6 | 0.00 | 0.00 | 0.00 | 90 | 974.1 |
| 20260906094546 | 21 | 270 | 0.0 | 0.0 | 0.00 | 0.00 | 0.00 | 90 | 974.1 |
| 20260906094039 | 21 | 270 | 0.0 | 0.0 | 0.00 | 0.00 | 0.00 | 90 | 974.1 |
| 20260906093539 | 21 | 270 | 0.0 | 0.0 | 0.00 | 0.00 | 0.00 | 90 | 974.0 |
| 20260906093053 | 21 | 270 | 0.0 | 0.0 | 0.00 | 0.00 | 0.00 | 90 | 973.9 |
| 20260906092539 | 21 | 270 | 0.0 | 0.0 | 0.00 | 0.00 | 0.00 | 90 | 974.0 |
| 20260906092039 | 21 | 270 | 0.0 | 1.6 | 0.00 | 0.00 | 0.00 | 90 | 974.0 |
| 20260906091538 | 21 | 270 | 0.0 | 1.6 | 0.00 | 0.00 | 0.00 | 90 | 974.0 |
| 20260906091038 | 21 | 270 | 0.0 | 0.0 | 0.00 | 0.00 | 0.00 | 90 | 973.9 |
| 20260906090539 | 21 | 270 | 0.0 | 0.0 | 0.00 | 0.00 | 0.00 | 90 | 973.8 |
| 20260906090107 | 21 | 270 | 0.0 | 0.0 | 0.00 | 0.00 | 0.00 | 90 | 973.7 |
| 20260906085540 | 21 | 270 | 0.0 | 0.0 | 0.00 | 0.00 | 0.00 | 90 | 973.7 |
| 20260906085040 | 21 | 270 | 0.0 | 0.0 | 0.00 | 0.00 | 0.00 | 90 | 973.7 |
| 20260906084540 | 21 | 270 | 0.0 | 0.0 | 0.00 | 0.00 | 0.00 | 90 | 973.6 |
| 20260906084038 | 21 | 270 | 0.0 | 0.0 | 0.00 | 0.00 | 0.00 | 90 | 973.6 |
| 20260906083536 | 21 | 270 | 0.0 | 0.0 | 0.00 | 0.00 | 0.00 | 90 | 973.5 |
| 20260906083041 | 21 | 270 | 0.0 | 0.0 | 0.00 | 0.00 | 0.00 | 90 | 973.5 |
| 20260906082536 | 21 | 270 | 0.0 | 0.0 | 0.00 | 0.00 | 0.00 | 90 | 973.4 |
| 20260906082036 | 21 | 270 | 0.0 | 3.2 | 0.00 | 0.00 | 0.00 | 90 | 973.3 |
| 20260906081536 | 21 | 270 | 0.0 | 3.2 | 0.00 | 0.00 | 0.00 | 90 | 973.2 |
| 20260906081036 | 20 | 270 | 0.0 | 0.0 | 0.00 | 0.00 | 0.00 | 90 | 973.3 |
| 20260906080534 | 20 | 270 | 0.0 | 0.0 | 0.00 | 0.00 | 0.00 | 90 | 973.3 |
| 20260906080035 | 20 | 270 | 0.0 | 0.0 | 0.00 | 0.00 | 0.00 | 90 | 973.3 |
| 20260906075535 | 20 | 270 | 0.0 | 0.0 | 0.00 | 0.00 | 0.00 | 90 | 973.2 |
| 20260906075035 | 20 | 270 | 0.0 | 0.0 | 0.00 | 0.00 | 0.00 | 89 | 973.3 |
| 20260906074546 | 20 | 270 | 0.0 | 0.0 | 0.00 | 0.00 | 0.00 | 89 | 973.3 |
| 20260906074033 | 20 | 270 | 0.0 | 0.0 | 0.00 | 0.00 | 0.00 | 89 | 973.2 |
| 20260906073534 | 20 | 270 | 0.0 | 0.0 | 0.00 | 0.00 | 0.00 | 89 | 973.2 |
| 20260906073033 | 20 | 270 | 0.0 | 0.0 | 0.00 | 0.00 | 0.00 | 89 | 973.2 |
| 20260906072533 | 20 | 270 | 0.0 | 0.0 | 0.00 | 0.00 | 0.00 | 89 | 973.1 |
| 20260906072032 | 20 | 270 | 0.0 | 0.0 | 0.00 | 0.00 | 0.00 | 89 | 973.1 |
| 20260906071532 | 21 | 270 | 0.0 | 0.0 | 0.00 | 0.00 | 0.00 | 89 | 973.2 |
| 20260906071030 | 21 | 270 | 0.0 | 0.0 | 0.00 | 0.00 | 0.00 | 88 | 973.4 |
| 20260906070529 | 21 | 270 | 0.0 | 0.0 | 0.00 | 0.00 | 0.00 | 89 | 973.5 |
| 20260906070029 | 21 | 270 | 0.0 | 0.0 | 0.00 | 0.00 | 0.00 | 88 | 973.4 |
| 20260906065529 | 21 | 270 | 0.0 | 0.0 | 0.00 | 0.00 | 0.00 | 88 | 973.5 |
| 20260906065028 | 21 | 270 | 0.0 | 0.0 | 0.00 | 0.00 | 0.00 | 88 | 973.5 |
| 20260906064526 | 21 | 270 | 0.0 | 0.0 | 0.00 | 0.00 | 0.00 | 88 | 973.6 |
| 20260906064027 | 21 | 270 | 0.0 | 0.0 | 0.00 | 0.00 | 0.00 | 88 | 973.6 |
| 20260906063527 | 21 | 270 | 0.0 | 0.0 | 0.00 | 0.00 | 0.00 | 87 | 973.6 |
| 20260906063026 | 21 | 270 | 0.0 | 1.6 | 0.00 | 0.00 | 0.00 | 87 | 973.7 |
| 20260906062525 | 21 | 270 | 0.0 | 3.2 | 0.00 | 0.00 | 0.00 | 87 | 973.6 |
| 20260906062025 | 21 | 270 | 0.0 | 3.2 | 0.00 | 0.00 | 0.00 | 87 | 973.7 |
| 20260906061525 | 21 | 270 | 0.0 | 0.0 | 0.00 | 0.00 | 0.00 | 87 | 973.7 |
| 20260906061024 | 21 | 270 | 0.0 | 0.0 | 0.00 | 0.00 | 0.00 | 87 | 973.7 |
| 20260906060525 | 21 | 270 | 0.0 | 3.2 | 0.00 | 0.00 | 0.00 | 87 | 973.7 |
| 20260906060025 | 21 | 270 | 0.0 | 3.2 | 0.00 | 0.00 | 0.00 | 87 | 973.8 |
| 20260906055524 | 21 | 270 | 0.0 | 3.2 | 0.00 | 0.00 | 0.00 | 86 | 973.8 |
| 20260906055024 | 21 | 270 | 1.6 | 3.2 | 0.00 | 0.00 | 0.00 | 86 | 973.8 |
| 20260906054523 | 21 | 270 | 0.0 | 0.0 | 0.00 | 0.00 | 0.00 | 86 | 973.8 |
| 20260906054022 | 21 | 270 | 0.0 | 0.0 | 0.00 | 0.00 | 0.00 | 86 | 973.9 |
| 20260906053522 | 21 | 270 | 0.0 | 0.0 | 0.00 | 0.00 | 0.00 | 86 | 973.9 |
| 20260906053022 | 21 | 270 | 0.0 | 0.0 | 0.00 | 0.00 | 0.00 | 86 | 973.9 |
| 20260906052521 | 21 | 270 | 0.0 | 0.0 | 0.00 | 0.00 | 0.00 | 85 | 973.8 |
| 20260906052020 | 21 | 270 | 0.0 | 0.0 | 0.00 | 0.00 | 0.00 | 85 | 973.8 |
| 20260906051523 | 21 | 270 | 0.0 | 0.0 | 0.00 | 0.00 | 0.00 | 85 | 973.8 |
| 20260906051019 | 21 | 270 | 0.0 | 0.0 | 0.00 | 0.00 | 0.00 | 84 | 973.7 |
| 20260906050518 | 21 | 270 | 0.0 | 0.0 | 0.00 | 0.00 | 0.00 | 84 | 973.6 |
| 20260906050018 | 22 | 270 | 0.0 | 0.0 | 0.00 | 0.00 | 0.00 | 84 | 973.6 |
| 20260906045517 | 22 | 270 | 0.0 | 0.0 | 0.00 | 0.00 | 0.00 | 84 | 973.6 |
| 20260906045018 | 22 | 270 | 0.0 | 0.0 | 0.00 | 0.00 | 0.00 | 84 | 973.6 |
| 20260906044516 | 22 | 270 | 0.0 | 0.0 | 0.00 | 0.00 | 0.00 | 83 | 973.6 |
| 20260906044015 | 22 | 270 | 0.0 | 0.0 | 0.00 | 0.00 | 0.00 | 83 | 973.6 |
| 20260906043514 | 22 | 270 | 0.0 | 4.8 | 0.00 | 0.00 | 0.00 | 83 | 973.6 |
| 20260906043016 | 22 | 270 | 0.0 | 4.8 | 0.00 | 0.00 | 0.00 | 83 | 973.7 |
| 20260906042513 | 22 | 270 | 0.0 | 1.6 | 0.00 | 0.00 | 0.00 | 82 | 973.6 |
| 20260906042013 | 22 | 270 | 0.0 | 1.6 | 0.00 | 0.00 | 0.00 | 82 | 973.7 |
| 20260906041512 | 22 | 270 | 0.0 | 0.0 | 0.00 | 0.00 | 0.00 | 82 | 973.7 |
| 20260906041013 | 22 | 270 | 0.0 | 0.0 | 0.00 | 0.00 | 0.00 | 82 | 973.6 |
| 20260906040510 | 22 | 270 | 0.0 | 3.2 | 0.00 | 0.00 | 0.00 | 81 | 973.7 |
| 20260906040009 | 22 | 270 | 0.0 | 3.2 | 0.00 | 0.00 | 0.00 | 81 | 973.7 |
| 20260906035513 | 23 | 270 | 0.0 | 0.0 | 0.00 | 0.00 | 0.00 | 80 | 973.8 |
| 20260906035009 | 23 | 270 | 0.0 | 0.0 | 0.00 | 0.00 | 0.00 | 79 | 973.8 |
| 20260906034512 | 23 | 270 | 0.0 | 0.0 | 0.00 | 0.00 | 0.00 | 79 | 973.8 |
| 20260906034009 | 23 | 270 | 0.0 | 0.0 | 0.00 | 0.00 | 0.00 | 79 | 973.8 |
| 20260906033507 | 23 | 270 | 0.0 | 0.0 | 0.00 | 0.00 | 0.00 | 79 | 973.9 |
| 20260906033008 | 23 | 270 | 0.0 | 0.0 | 0.00 | 0.00 | 0.00 | 78 | 974.0 |
| 20260906032507 | 23 | 270 | 0.0 | 0.0 | 0.00 | 0.00 | 0.00 | 78 | 973.9 |
| 20260906032008 | 23 | 270 | 0.0 | 3.2 | 0.00 | 0.00 | 0.00 | 78 | 973.8 |
| 20260906031507 | 23 | 270 | 0.0 | 3.2 | 0.00 | 0.00 | 0.00 | 78 | 973.8 |
| 20260906031007 | 23 | 270 | 0.0 | 3.2 | 0.00 | 0.00 | 0.00 | 78 | 973.8 |
| 20260906030506 | 23 | 270 | 0.0 | 0.0 | 0.00 | 0.00 | 0.00 | 78 | 973.9 |
| 20260906030006 | 23 | 270 | 0.0 | 0.0 | 0.00 | 0.00 | 0.00 | 78 | 973.8 |
| 20260906025510 | 23 | 270 | 0.0 | 0.0 | 0.00 | 0.00 | 0.00 | 78 | 973.8 |
| 20260906025007 | 23 | 270 | 0.0 | 0.0 | 0.00 | 0.00 | 0.00 | 77 | 973.8 |
| 20260906024506 | 23 | 270 | 0.0 | 0.0 | 0.00 | 0.00 | 0.00 | 77 | 973.6 |
| 20260906024007 | 23 | 270 | 0.0 | 0.0 | 0.00 | 0.00 | 0.00 | 76 | 973.6 |
| 20260906023506 | 23 | 270 | 0.0 | 0.0 | 0.00 | 0.00 | 0.00 | 76 | 973.6 |
| 20260906023006 | 24 | 270 | 0.0 | 0.0 | 0.00 | 0.00 | 0.00 | 76 | 973.5 |
| 20260906022506 | 24 | 270 | 0.0 | 0.0 | 0.00 | 0.00 | 0.00 | 75 | 973.5 |
| 20260906022006 | 24 | 270 | 0.0 | 3.2 | 0.00 | 0.00 | 0.00 | 75 | 973.5 |
| 20260906021506 | 24 | 270 | 0.0 | 3.2 | 0.00 | 0.00 | 0.00 | 75 | 973.4 |
| 20260906021006 | 24 | 270 | 0.0 | 3.2 | 0.00 | 0.00 | 0.00 | 74 | 973.4 |
| 20260906020505 | 25 | 270 | 0.0 | 3.2 | 0.00 | 0.00 | 0.00 | 74 | 973.4 |
| 20260906020006 | 25 | 270 | 0.0 | 3.2 | 0.00 | 0.00 | 0.00 | 73 | 973.3 |
| 20260906015504 | 25 | 270 | 1.6 | 3.2 | 0.00 | 0.00 | 0.00 | 72 | 973.2 |
| 20260906015005 | 25 | 270 | 0.0 | 3.2 | 0.00 | 0.00 | 0.00 | 72 | 973.2 |
| 20260906014512 | 25 | 270 | 0.0 | 0.0 | 0.00 | 0.00 | 0.00 | 71 | 973.1 |
| 20260906014004 | 25 | 270 | 0.0 | 1.6 | 0.00 | 0.00 | 0.00 | 71 | 973.1 |
| 20260906013504 | 25 | 270 | 0.0 | 1.6 | 0.00 | 0.00 | 0.00 | 71 | 973.1 |
| 20260906013004 | 25 | 270 | 0.0 | 0.0 | 0.00 | 0.00 | 0.00 | 70 | 973.0 |
| 20260906012506 | 25 | 270 | 0.0 | 0.0 | 0.00 | 0.00 | 0.00 | 70 | 972.9 |
| 20260906012005 | 25 | 270 | 0.0 | 0.0 | 0.00 | 0.00 | 0.00 | 70 | 972.9 |
| 20260906011504 | 26 | 270 | 0.0 | 0.0 | 0.00 | 0.00 | 0.00 | 70 | 972.8 |
| 20260906011005 | 26 | 270 | 0.0 | 1.6 | 0.00 | 0.00 | 0.00 | 69 | 972.7 |
| 20260906010504 | 26 | 270 | 0.0 | 3.2 | 0.00 | 0.00 | 0.00 | 69 | 972.6 |
| 20260906010010 | 26 | 270 | 0.0 | 3.2 | 0.00 | 0.00 | 0.00 | 68 | 972.6 |
| 20260906005503 | 26 | 270 | 0.0 | 0.0 | 0.00 | 0.00 | 0.00 | 67 | 972.6 |
| 20260906005006 | 26 | 270 | 0.0 | 0.0 | 0.00 | 0.00 | 0.00 | 67 | 972.7 |
| 20260906004503 | 26 | 270 | 0.0 | 0.0 | 0.00 | 0.00 | 0.00 | 67 | 972.6 |
| 20260906004002 | 26 | 270 | 0.0 | 1.6 | 0.00 | 0.00 | 0.00 | 66 | 972.5 |
| 20260906003502 | 26 | 270 | 0.0 | 4.8 | 0.00 | 0.00 | 0.00 | 66 | 972.5 |
| 20260906003003 | 27 | 270 | 0.0 | 4.8 | 0.00 | 0.00 | 0.00 | 65 | 972.4 |
| 20260906002502 | 27 | 270 | 0.0 | 1.6 | 0.00 | 0.00 | 0.00 | 65 | 972.5 |
| 20260906002005 | 27 | 270 | 0.0 | 1.6 | 0.00 | 0.00 | 0.00 | 64 | 972.4 |
| 20260906001502 | 27 | 270 | 0.0 | 1.6 | 0.00 | 0.00 | 0.00 | 65 | 972.2 |
| 20260906001002 | 27 | 270 | 0.0 | 1.6 | 0.00 | 0.00 | 0.00 | 63 | 972.2 |
| 20260906000502 | 27 | 270 | 0.0 | 4.8 | 0.00 | 0.00 | 0.00 | 63 | 972.1 |
| 20260906000002 | 27 | 270 | 1.6 | 4.8 | 0.00 | 0.00 | 0.00 | 63 | 972.1 |
| 20260905235502 | 27 | 270 | 0.0 | 0.0 | 0.00 | 0.00 | 0.00 | 63 | 972.0 |
| 20260905235002 | 28 | 270 | 0.0 | 3.2 | 0.00 | 0.00 | 0.00 | 63 | 971.9 |
| 20260905234501 | 28 | 270 | 0.0 | 6.4 | 0.00 | 0.00 | 0.00 | 62 | 972.0 |
| 20260905234100 | 28 | 270 | 0.0 | 6.4 | 0.00 | 0.00 | 0.00 | 62 | 972.0 |
| 20260905233600 | 28 | 270 | 0.0 | 0.0 | 0.00 | 0.00 | 0.00 | 62 | 972.0 |
| 20260905233000 | 28 | 270 | 0.0 | 3.2 | 0.00 | 0.00 | 0.00 | 61 | 972.1 |
| 20260905232603 | 28 | 270 | 0.0 | 4.8 | 0.00 | 0.00 | 0.00 | 60 | 972.0 |
| 20260905232501 | 28 | 270 | 0.0 | 4.8 | 0.00 | 0.00 | 0.00 | 61 | 972.1 |
| 20260905232100 | 29 | 270 | 0.0 | 4.8 | 0.00 | 0.00 | 0.00 | 60 | 972.0 |
| 20260905231600 | 29 | 270 | 0.0 | 4.8 | 0.00 | 0.00 | 0.00 | 61 | 972.0 |
| 20260905231100 | 29 | 271 | 0.0 | 4.8 | 0.00 | 0.00 | 0.00 | 61 | 972.0 |
| 20260905230604 | 29 | 271 | 1.6 | 4.8 | 0.00 | 0.00 | 0.00 | 60 | 972.0 |
| 20260905230118 | 29 | 270 | 0.0 | 1.6 | 0.00 | 0.00 | 0.00 | 60 | 972.0 |
| 20260905225559 | 29 | 270 | 0.0 | 1.6 | 0.00 | 0.00 | 0.00 | 60 | 972.0 |
| 20260905225100 | 30 | 270 | 0.0 | 1.6 | 0.00 | 0.00 | 0.00 | 59 | 972.0 |
| 20260905224600 | 30 | 270 | 0.0 | 1.6 | 0.00 | 0.00 | 0.00 | 59 | 972.0 |
| 20260905224058 | 30 | 270 | 0.0 | 6.4 | 0.00 | 0.00 | 0.00 | 58 | 972.1 |
| 20260905223559 | 30 | 270 | 0.0 | 6.4 | 0.00 | 0.00 | 0.00 | 56 | 972.0 |
| 20260905223059 | 30 | 234 | 1.6 | 4.8 | 0.00 | 0.00 | 0.00 | 56 | 972.0 |
| 20260905222559 | 30 | 234 | 1.6 | 4.8 | 0.00 | 0.00 | 0.00 | 56 | 972.0 |
| 20260905222059 | 30 | 244 | 0.0 | 4.8 | 0.00 | 0.00 | 0.00 | 58 | 971.9 |
| 20260905221558 | 30 | 244 | 0.0 | 3.2 | 0.00 | 0.00 | 0.00 | 57 | 971.9 |
| 20260905221059 | 31 | 244 | 0.0 | 6.4 | 0.00 | 0.00 | 0.00 | 58 | 971.8 |
| 20260905220559 | 31 | 244 | 1.6 | 6.4 | 0.00 | 0.00 | 0.00 | 57 | 971.8 |
| 20260905220058 | 31 | 244 | 0.0 | 4.8 | 0.00 | 0.00 | 0.00 | 57 | 971.8 |
| 20260905215601 | 31 | 244 | 0.0 | 4.8 | 0.00 | 0.00 | 0.00 | 57 | 971.8 |
| 20260905215057 | 31 | 244 | 0.0 | 6.4 | 0.00 | 0.00 | 0.00 | 57 | 971.8 |
| 20260905214556 | 31 | 252 | 0.0 | 6.4 | 0.00 | 0.00 | 0.00 | 57 | 971.7 |
| 20260905214056 | 31 | 252 | 1.6 | 6.4 | 0.00 | 0.00 | 0.00 | 55 | 971.7 |
| 20260905213556 | 31 | 252 | 1.6 | 9.7 | 0.00 | 0.00 | 0.00 | 56 | 971.6 |
| 20260905213058 | 31 | 262 | 1.6 | 6.4 | 0.00 | 0.00 | 0.00 | 55 | 971.5 |
| 20260905212557 | 32 | 263 | 3.2 | 6.4 | 0.00 | 0.00 | 0.00 | 55 | 971.4 |
| 20260905212057 | 31 | 22 | 0.0 | 9.7 | 0.00 | 0.00 | 0.00 | 56 | 971.4 |
| 20260905211558 | 31 | 21 | 1.6 | 9.7 | 0.00 | 0.00 | 0.00 | 56 | 971.4 |
| 20260905211058 | 31 | 262 | 0.0 | 6.4 | 0.00 | 0.00 | 0.00 | 57 | 971.4 |
| 20260905210558 | 31 | 262 | 0.0 | 8.0 | 0.00 | 0.00 | 0.00 | 55 | 971.5 |
| 20260905210057 | 31 | 61 | 1.6 | 8.0 | 0.00 | 0.00 | 0.00 | 55 | 971.4 |
| 20260905205555 | 31 | 23 | 0.0 | 11.3 | 0.00 | 0.00 | 0.00 | 55 | 971.5 |
| 20260905205059 | 31 | 22 | 3.2 | 11.3 | 0.00 | 0.00 | 0.00 | 55 | 971.5 |
| 20260905204554 | 31 | 273 | 3.2 | 8.0 | 0.00 | 0.00 | 0.00 | 54 | 971.5 |
| 20260905204057 | 31 | 228 | 0.0 | 4.8 | 0.00 | 0.00 | 0.00 | 54 | 971.4 |
| 20260905203556 | 31 | 232 | 1.6 | 9.7 | 0.00 | 0.00 | 0.00 | 55 | 971.5 |
| 20260905203100 | 31 | 232 | 1.6 | 9.7 | 0.00 | 0.00 | 0.00 | 54 | 971.4 |
| 20260905202553 | 32 | 234 | 3.2 | 6.4 | 0.00 | 0.00 | 0.00 | 52 | 971.5 |
| 20260905202053 | 32 | 216 | 1.6 | 8.0 | 0.00 | 0.00 | 0.00 | 52 | 971.5 |
| 20260905201604 | 32 | 109 | 1.6 | 9.7 | 0.00 | 0.00 | 0.00 | 52 | 971.4 |
| 20260905201053 | 32 | 5 | 1.6 | 9.7 | 0.00 | 0.00 | 0.00 | 52 | 971.3 |
| 20260905200553 | 32 | 360 | 1.6 | 9.7 | 0.00 | 0.00 | 0.00 | 50 | 971.2 |
| 20260905200057 | 32 | 5 | 1.6 | 9.7 | 0.00 | 0.00 | 0.00 | 51 | 971.2 |
| 20260905195555 | 32 | 233 | 3.2 | 16.1 | 0.00 | 0.00 | 0.00 | 50 | 971.0 |
| 20260905195052 | 32 | 226 | 3.2 | 12.9 | 0.00 | 0.00 | 0.00 | 50 | 971.1 |
| 20260905194552 | 32 | 63 | 3.2 | 11.3 | 0.00 | 0.00 | 0.00 | 49 | 971.1 |
| 20260905194052 | 33 | 227 | 1.6 | 8.0 | 0.00 | 0.00 | 0.00 | 49 | 971.1 |
| 20260905193551 | 32 | 222 | 1.6 | 11.3 | 0.00 | 0.00 | 0.00 | 49 | 971.1 |
| 20260905193051 | 32 | 132 | 3.2 | 14.5 | 0.00 | 0.00 | 0.00 | 49 | 971.1 |
| 20260905192550 | 32 | 253 | 3.2 | 14.5 | 0.00 | 0.00 | 0.00 | 49 | 971.4 |
| 20260905192052 | 32 | 223 | 3.2 | 14.5 | 0.00 | 0.00 | 0.00 | 49 | 971.6 |
| 20260905191549 | 33 | 209 | 3.2 | 14.5 | 0.00 | 0.00 | 0.00 | 47 | 971.6 |
| 20260905191048 | 33 | 228 | 3.2 | 14.5 | 0.00 | 0.00 | 0.00 | 50 | 971.6 |
| 20260905190547 | 33 | 240 | 4.8 | 11.3 | 0.00 | 0.00 | 0.00 | 49 | 971.7 |
| 20260905190046 | 32 | 227 | 1.6 | 11.3 | 0.00 | 0.00 | 0.00 | 51 | 971.8 |
| 20260905185545 | 33 | 209 | 3.2 | 9.7 | 0.00 | 0.00 | 0.00 | 50 | 971.9 |
| 20260905185044 | 33 | 246 | 1.6 | 11.3 | 0.00 | 0.00 | 0.00 | 52 | 972.2 |
| 20260905184547 | 32 | 251 | 4.8 | 11.3 | 0.00 | 0.00 | 0.00 | 55 | 972.4 |
| 20260905184040 | 32 | 245 | 1.6 | 8.0 | 0.00 | 0.00 | 0.00 | 56 | 972.5 |
| 20260905183540 | 32 | 251 | 3.2 | 12.9 | 0.00 | 0.00 | 0.00 | 56 | 972.5 |
| 20260905183048 | 32 | 259 | 4.8 | 12.9 | 0.00 | 0.00 | 0.00 | 56 | 972.7 |
| 20260905182537 | 31 | 254 | 1.6 | 12.9 | 0.00 | 0.00 | 0.00 | 61 | 972.8 |
| 20260905182040 | 31 | 246 | 4.8 | 12.9 | 0.00 | 0.00 | 0.00 | 60 | 972.9 |
| 20260905181536 | 31 | 202 | 3.2 | 9.7 | 0.00 | 0.00 | 0.00 | 60 | 972.9 |
| 20260905181035 | 31 | 267 | 1.6 | 9.7 | 0.00 | 0.00 | 0.00 | 61 | 972.9 |
| 20260905180539 | 31 | 243 | 3.2 | 11.3 | 0.00 | 0.00 | 0.00 | 61 | 972.9 |
| 20260905180034 | 31 | 246 | 3.2 | 11.3 | 0.00 | 0.00 | 0.00 | 61 | 973.0 |
| 20260905175532 | 30 | 231 | 0.0 | 6.4 | 0.00 | 0.00 | 0.00 | 63 | 973.1 |
| 20260905175031 | 30 | 231 | 0.0 | 6.4 | 0.00 | 0.00 | 0.00 | 62 | 973.2 |
| 20260905174532 | 30 | 269 | 3.2 | 6.4 | 0.00 | 0.00 | 0.00 | 62 | 973.1 |
| 20260905174132 | 30 | 269 | 1.6 | 6.4 | 0.00 | 0.00 | 0.00 | 61 | 972.9 |
| 20260905173531 | 30 | 15 | 1.6 | 14.5 | 0.00 | 0.00 | 0.00 | 61 | 972.9 |
| 20260905173030 | 30 | 5 | 3.2 | 14.5 | 0.00 | 0.00 | 0.00 | 61 | 973.0 |
| 20260905172530 | 30 | 271 | 3.2 | 11.3 | 0.00 | 0.00 | 0.00 | 60 | 973.2 |
| 20260905172030 | 30 | 271 | 1.6 | 11.3 | 0.00 | 0.00 | 0.00 | 61 | 973.0 |
| 20260905171531 | 30 | 272 | 3.2 | 9.7 | 0.00 | 0.00 | 0.00 | 61 | 972.9 |
| 20260905171028 | 30 | 273 | 1.6 | 6.4 | 0.00 | 0.00 | 0.00 | 61 | 973.0 |
| 20260905170528 | 30 | 271 | 1.6 | 6.4 | 0.00 | 0.00 | 0.00 | 61 | 973.0 |
| 20260905170027 | 30 | 9 | 0.0 | 8.0 | 0.00 | 0.00 | 0.00 | 62 | 973.3 |
| 20260905165526 | 30 | 11 | 4.8 | 8.0 | 0.00 | 0.00 | 0.00 | 62 | 973.5 |
| 20260905165026 | 30 | 271 | 1.6 | 6.4 | 0.00 | 0.00 | 0.00 | 62 | 973.5 |
| 20260905164525 | 30 | 271 | 1.6 | 9.7 | 0.00 | 0.00 | 0.00 | 62 | 973.7 |
| 20260905164025 | 30 | 15 | 3.2 | 9.7 | 0.00 | 0.00 | 0.00 | 62 | 973.8 |
| 20260905163528 | 30 | 9 | 3.2 | 12.9 | 0.00 | 0.00 | 0.00 | 63 | 973.9 |
| 20260905163026 | 30 | 5 | 3.2 | 9.7 | 0.00 | 0.00 | 0.00 | 63 | 973.9 |
| 20260905162526 | 30 | 270 | 1.6 | 11.3 | 0.00 | 0.00 | 0.00 | 63 | 973.9 |
| 20260905162024 | 29 | 270 | 1.6 | 9.7 | 0.00 | 0.00 | 0.00 | 65 | 974.1 |
| 20260905161526 | 29 | 269 | 1.6 | 9.7 | 0.00 | 0.00 | 0.00 | 65 | 974.2 |
| 20260905161028 | 29 | 271 | 3.2 | 9.7 | 0.00 | 0.00 | 0.00 | 65 | 974.0 |
| 20260905160528 | 28 | 240 | 0.0 | 3.2 | 0.00 | 0.00 | 0.00 | 68 | 974.0 |
| 20260905160025 | 29 | 240 | 0.0 | 16.1 | 0.00 | 0.00 | 0.00 | 65 | 974.3 |
| 20260905155529 | 30 | 202 | 4.8 | 16.1 | 0.00 | 0.00 | 0.00 | 62 | 974.6 |
| 20260905155023 | 30 | 265 | 3.2 | 6.4 | 0.00 | 0.00 | 0.00 | 63 | 974.4 |
| 20260905154522 | 30 | 254 | 0.0 | 6.4 | 0.00 | 0.00 | 0.00 | 63 | 974.6 |
| 20260905154021 | 29 | 254 | 1.6 | 6.4 | 0.00 | 0.00 | 0.00 | 67 | 974.8 |
| 20260905153521 | 28 | 253 | 1.6 | 6.4 | 0.00 | 0.00 | 0.00 | 67 | 974.8 |
| 20260905153024 | 28 | 253 | 1.6 | 8.0 | 0.00 | 0.00 | 0.00 | 67 | 974.7 |
| 20260905152520 | 28 | 256 | 0.0 | 8.0 | 0.00 | 0.00 | 0.00 | 67 | 974.8 |
| 20260905152023 | 28 | 223 | 1.6 | 8.0 | 0.00 | 0.00 | 0.00 | 67 | 974.7 |
| 20260905151528 | 28 | 226 | 3.2 | 9.7 | 0.00 | 0.00 | 0.00 | 67 | 974.9 |
| 20260905151020 | 28 | 219 | 3.2 | 11.3 | 0.00 | 0.00 | 0.00 | 68 | 974.8 |
| 20260905150520 | 28 | 171 | 3.2 | 17.7 | 0.00 | 0.00 | 0.00 | 67 | 974.7 |
| 20260905150022 | 28 | 210 | 4.8 | 17.7 | 0.00 | 0.00 | 0.00 | 68 | 974.7 |
| 20260905145518 | 28 | 219 | 3.2 | 14.5 | 0.00 | 0.00 | 0.00 | 69 | 974.7 |
| 20260905145019 | 29 | 58 | 0.0 | 6.4 | 0.00 | 0.00 | 0.00 | 70 | 974.5 |
| 20260905144527 | 29 | 57 | 1.6 | 9.7 | 0.00 | 0.00 | 0.00 | 71 | 974.3 |
| 20260905144018 | 29 | 36 | 3.2 | 9.7 | 0.00 | 0.00 | 0.00 | 71 | 974.1 |
| 20260905143518 | 29 | 14 | 1.6 | 9.7 | 0.00 | 0.00 | 0.00 | 70 | 974.1 |
| 20260905143018 | 29 | 12 | 3.2 | 9.7 | 0.00 | 0.00 | 0.00 | 70 | 974.2 |
| 20260905142520 | 29 | 265 | 3.2 | 9.7 | 0.00 | 0.00 | 0.00 | 70 | 974.2 |
| 20260905142018 | 29 | 36 | 3.2 | 11.3 | 0.00 | 0.00 | 0.00 | 69 | 974.1 |
| 20260905141517 | 29 | 43 | 1.6 | 11.3 | 0.00 | 0.00 | 0.00 | 70 | 974.1 |
| 20260905141016 | 29 | 360 | 1.6 | 9.7 | 0.00 | 0.00 | 0.00 | 70 | 974.0 |
| 20260905140517 | 29 | 27 | 1.6 | 8.0 | 0.00 | 0.00 | 0.00 | 70 | 974.0 |
| 20260905140017 | 29 | 27 | 1.6 | 9.7 | 0.00 | 0.00 | 0.00 | 69 | 973.9 |
| 20260905135518 | 29 | 16 | 3.2 | 9.7 | 0.00 | 0.00 | 0.00 | 69 | 973.9 |
| 20260905135016 | 29 | 16 | 3.2 | 9.7 | 0.00 | 0.00 | 0.00 | 69 | 974.0 |
| 20260905134515 | 29 | 33 | 1.6 | 11.3 | 0.00 | 0.00 | 0.00 | 70 | 974.0 |
| 20260905134013 | 28 | 215 | 4.8 | 11.3 | 0.00 | 0.00 | 0.00 | 71 | 974.0 |
| 20260905133511 | 28 | 271 | 3.2 | 9.7 | 0.00 | 0.00 | 0.00 | 72 | 974.0 |
| 20260905133010 | 28 | 227 | 3.2 | 8.0 | 0.00 | 0.00 | 0.00 | 72 | 974.0 |
| 20260905132510 | 27 | 5 | 3.2 | 8.0 | 0.00 | 0.00 | 0.00 | 73 | 973.9 |
| 20260905132009 | 27 | 263 | 3.2 | 8.0 | 0.00 | 0.00 | 0.00 | 73 | 974.0 |
| 20260905131507 | 27 | 239 | 3.2 | 11.3 | 0.00 | 0.00 | 0.00 | 73 | 973.8 |
| 20260905131006 | 27 | 275 | 1.6 | 12.9 | 0.00 | 0.00 | 0.00 | 73 | 973.9 |
| 20260905130506 | 27 | 232 | 3.2 | 11.3 | 0.00 | 0.00 | 0.00 | 74 | 974.0 |
| 20260905130004 | 27 | 263 | 3.2 | 9.7 | 0.00 | 0.00 | 0.00 | 75 | 973.8 |
| 20260905125504 | 26 | 249 | 1.6 | 9.7 | 0.00 | 0.00 | 0.00 | 76 | 973.9 |
| 20260905125002 | 26 | 246 | 1.6 | 9.7 | 0.00 | 0.00 | 0.00 | 77 | 974.0 |
| 20260905124503 | 26 | 28 | 3.2 | 12.9 | 0.00 | 0.00 | 0.00 | 77 | 973.9 |
| 20260905124001 | 26 | 13 | 3.2 | 12.9 | 0.00 | 0.00 | 0.00 | 77 | 974.0 |
| 20260905123600 | 26 | 271 | 3.2 | 9.7 | 0.00 | 0.00 | 0.00 | 78 | 974.0 |
| 20260905123105 | 25 | 275 | 1.6 | 9.7 | 0.00 | 0.00 | 0.00 | 79 | 973.9 |
| 20260905122557 | 25 | 265 | 1.6 | 9.7 | 0.00 | 0.00 | 0.00 | 80 | 973.9 |
| 20260905122100 | 25 | 269 | 3.2 | 11.3 | 0.00 | 0.00 | 0.00 | 80 | 974.0 |
| 20260905121554 | 25 | 157 | 3.2 | 14.5 | 0.00 | 0.00 | 0.00 | 81 | 974.1 |
| 20260905121053 | 24 | 200 | 1.6 | 8.0 | 0.00 | 0.00 | 0.00 | 81 | 974.1 |
| 20260905120552 | 24 | 273 | 3.2 | 9.7 | 0.00 | 0.00 | 0.00 | 82 | 974.0 |
| 20260905120051 | 24 | 275 | 3.2 | 16.1 | 0.00 | 0.00 | 0.00 | 82 | 974.0 |
| 20260905115554 | 23 | 360 | 3.2 | 16.1 | 0.00 | 0.00 | 0.00 | 82 | 973.9 |
| 20260905115053 | 23 | 275 | 1.6 | 9.7 | 0.00 | 0.00 | 0.00 | 83 | 973.9 |
| 20260905114551 | 23 | 275 | 3.2 | 9.7 | 0.00 | 0.00 | 0.00 | 83 | 973.9 |
| 20260905114050 | 23 | 244 | 3.2 | 9.7 | 0.00 | 0.00 | 0.00 | 83 | 973.9 |
| 20260905113550 | 23 | 275 | 3.2 | 9.7 | 0.00 | 0.00 | 0.00 | 83 | 973.8 |
| 20260905113051 | 23 | 5 | 3.2 | 9.7 | 0.00 | 0.00 | 0.00 | 83 | 973.7 |
| 20260905112549 | 23 | 34 | 1.6 | 9.7 | 0.00 | 0.00 | 0.00 | 83 | 973.7 |
| 20260905112048 | 23 | 270 | 3.2 | 9.7 | 0.00 | 0.00 | 0.00 | 83 | 973.8 |
| 20260905111553 | 23 | 53 | 3.2 | 9.7 | 0.00 | 0.00 | 0.00 | 83 | 973.9 |